SPACEMOBILE-SSR05 DEB, 62373

Orbit data source: Space-Track

SPACEMOBILE-SSR05 DEB, 62373 is space debris in LEO originally from a launch on Thu, 12 Sep 2024 UTC launched from the Air Force Eastern Test Range (AFETR). Debris objects in space refer to the collection of defunct objects orbiting the Earth. Examples of debris include non-operational satellites, rocket bodies, and fragments generated from explosions, collisions, or faulty payload assembly.

Loading next visibility...
Identifier
62373, 2024-163K
Orbit
LEO
Country
Flag of USUS
Related business
Manufacturer
AST & Science
Mission
Spacecraft
Bus & Motor
BW3 LVA, Unknown motor
Mass
150 kg wet, 150 kg dry
Launch date (UTC)
2024-09-12 (1 year ago)
Launch vehicle
Unknown
Launch site
Air Force Eastern Test Range (AFETR)
Object type
Payload
Rocket body
Debris
Shape & HBR
Cyl, 3.8 m
Radar Cross Section
1.963 m², Large (>1 m²)

Expand to show TLE details & history
Last TLE update: 11 hours ago

TLE from 11 hours ago
0 SPACEMOBILE-SSR05 DEB
1 62373U 24163K   25288.54598281  .00010067  00000-0  38526-3 0  9995
2 62373  52.9798 346.0278 0009140  93.2300 266.9743 15.27152145 60651
Epoch: 2025-10-15T13:06Z
TLE epoch observation values (Epoch: 2025-10-15T13:06:12.914Z)
Latitude
-0.00003°
Longitude
125.15546°
Altitude
485.546 km
Speed
7.624 km/s
True Right ascension
23h 04m 06s
True Declination
0° 00' 00"
Sunlit
Object was in full shadow at epoch
Visualization orbit readout
Latitude
Unknown
Longitude
Unknown
Altitude
Unknown
Speed
Unknown
Apparent Right ascension
Unknown
Apparent Declination
Unknown
Sunlit
N/A
Visualization observer readout
Local Sidereal Time
18:36:55
Azimuth
Unknown
Elevation
Unknown
Doppler factor
Unknown
Orbital elements
Apogee altitude
490.888 km
Perigee altitude
478.343 km
Semi-major axis
6,862.753 km
Eccentricity
0.00091
Inclination
52.9798°
RAAN
346.0278°
Arg. of periapsis
93.23°
True anomaly
266.86972°
Mean anomaly
266.9743°
Eccentric anomaly
266.92201°
Mean motion
3.81765 °/min
Orbital period
94.3 mins
BSTAR
0.00038526
Loading maneuver chart data...
Computing Atmospheric mass density...
Loading historical data...
Loading historical data...
Loading historical data...
Loading historical data...
Loading historical data...
Loading historical data...
Loading historical data...

Documentation

Showing up to 5 results
|